This demonstration page uses our WeatherBlox Daily Observations layout. Learn more.

Left ArrowRight Arrow

Hourly Observations for March 29, 2018

Temp ( °F °C ) Dew Point ( °F °C ) Humidity (%) Winds ( mph kmh ) Pressure ( in mb ) Visibility ( mi km ) Precip ( " mm )
12:59 am 00:59 Mostly Cloudy 66 18.9 55 12.8 68 68 SW 6 9 30.02 1017 10 16 0.00 0.00
1:59 am 01:59 Mostly Cloudy 66 18.9 55 12.8 68 68 SSW 8 13 30.01 1016 10 16 0.00 0.00
2:59 am 02:59 Mostly Cloudy 65 18.3 54 12.2 68 68 SSW 8 13 30.01 1016 9 14 0.00 0.00
3:59 am 03:59 Mostly Cloudy 64 17.8 54 12.2 70 70 SW 10 17 30.00 1016 10 16 0.00 0.00
4:59 am 04:59 Mostly Cloudy 62 16.7 54 12.2 75 75 SW 8 13 30.01 1016 9 14 0.00 0.00
5:59 am 05:59 Partly Cloudy 62 16.7 54 12.2 75 75 SW 10 17 30.01 1016 9 14 0.00 0.00
6:59 am 06:59 Partly Cloudy 61 16.1 54 12.2 78 78 SW 9 15 30.03 1017 9 14 0.00 0.00
7:59 am 07:59 Partly Cloudy 62 16.7 54 12.2 75 75 SW 10 17 30.04 1017 9 14 0.00 0.00
8:59 am 08:59 Partly Cloudy 66 18.9 54 12.2 65 65 SW 10 17 30.03 1017 10 16 0.00 0.00
9:59 am 09:59 Mostly Cloudy 68 20 55 12.8 63 63 WSW 8 13 30.04 1017 10 16 0.00 0.00
10:59 am 10:59 Mostly Cloudy 73 22.8 56 13.3 55 55 SW 10 17 30.04 1017 10 16 0.00 0.00
11:59 am 11:59 Partly Cloudy 76 24.4 56 13.3 50 50 SW 13 20 30.04 1017 10 16 0.00 0.00
12:59 pm 12:59 Mostly Cloudy 79 26.1 57 13.9 47 47 SW 10 17 30.01 1016 10 16 0.00 0.00
1:59 pm 13:59 Mostly Cloudy 79 26.1 55 12.8 44 44 SW 17 28 29.98 1015 10 16 0.00 0.00
2:59 pm 14:59 Mostly Cloudy 81 27.2 56 13.3 42 42 SSW 15 24 29.95 1014 10 16 0.00 0.00
3:59 pm 15:59 Mostly Cloudy 79 26.1 56 13.3 45 45 SW 9 15 29.92 1013 10 16 0.00 0.00
4:59 pm 16:59 Mostly Cloudy 79 26.1 56 13.3 45 45 S 14 22 29.92 1013 10 16 0.00 0.00
5:59 pm 17:59 Partly Cloudy 78 25.6 56 13.3 47 47 SSW 12 19 29.90 1013 10 16 0.00 0.00
6:59 pm 18:59 Mostly Cloudy 76 24.4 55 12.8 48 48 SSW 13 20 29.91 1013 10 16 0.00 0.00
7:59 pm 19:59 Partly Cloudy 74 23.3 56 13.3 54 54 S 6 9 29.90 1012 10 16 0.00 0.00
8:59 pm 20:59 Mostly Cloudy 71 21.7 58 14.4 63 63 S 10 17 29.92 1013 10 16 0.00 0.00
9:59 pm 21:59 Mostly Cloudy 71 21.7 57 13.9 61 61 SSW 13 20 29.93 1013 10 16 0.00 0.00
10:59 pm 22:59 Partly Cloudy 70 21.1 57 13.9 64 64 SSW 12 19 29.91 1013 10 16 0.00 0.00
11:59 pm 23:59 Mostly Cloudy 69 20.6 57 13.9 66 66 SSW 14 22 29.92 1013 10 16 0.00 0.00

Powered by AerisWeather